Location: Columbia
(38.9520°N, 92.3340°W)
Time: 14:19:11
(UTC-06:00)

Tiangong 1 - Visible Passes

Search period start: 03 March 2015 00:00
Search period end: 13 March 2015 01:00
Orbit: 348 x 361 km, 42.8° (Epoch: 03 March)

Date Brightness Start Highest point End Pass type
(mag) Time Alt. Az. Time Alt. Az. Time Alt. Az.
03 Mar 1.2 05:38:09 20° SW 05:40:01 62° SSE 05:42:55 10° ENE visible
04 Mar 3.6 04:32:18 19° ESE 04:32:18 19° ESE 04:33:29 10° E visible
04 Mar 1.1 06:03:56 10° W 06:06:50 58° NNW 06:09:44 10° ENE visible
05 Mar 1.3 04:57:50 63° E 04:57:50 63° E 05:00:24 10° ENE visible
06 Mar 1.3 05:23:11 34° WNW 05:24:05 50° NNW 05:26:58 10° ENE visible
07 Mar 4.2 04:16:47 15° ENE 04:16:47 15° ENE 04:17:24 10° ENE visible
07 Mar 1.9 05:48:22 13° WNW 05:50:41 37° N 05:53:27 10° ENE visible
08 Mar 2.6 05:41:50 31° NE 05:41:50 31° NE 05:43:43 10° ENE visible
09 Mar 1.9 06:06:44 33° NNW 06:07:15 36° N 06:10:00 10° ENE visible
10 Mar 4.7 04:59:59 10° ENE 04:59:59 10° ENE 05:00:01 10° ENE visible
10 Mar 1.8 06:31:32 17° WNW 06:33:30 42° N 06:36:20 10° E visible
11 Mar 3.4 05:24:42 22° NE 05:24:42 22° NE 05:26:06 10° ENE visible
11 Mar 1.0 06:56:38 10° WNW 06:59:35 74° NNE 07:02:30 10° ESE visible
12 Mar 1.6 05:49:20 45° N 05:49:21 45° N 05:52:12 10° E visible
